Wind_Speed
10 9 9 9 9 10 10 9 9 8 8 8 7 7 7 6 5 6 7 8 7 7 7 6 6 6 6 6 5 5 6 6 7 7 7 8 8 8 7 6 5 5
11 9 9 9 9 10 10 9 9 8 8 8 8 9 8 7 6 7 8 9 8 8 7 7 7 6 6 6 5 6 6 6 6 6 6 6 6 7 6 6 6 6
13 12 11 11 10 10 10 10 9 8 9 9 9 10 9 8 8 8 9 9 9 9 8 8 7 6 6 6 5 6 6 6 6 5 6 6 5 6 6 7 7 7
15 14 12 11 11 12 11 10 10 9 9 9 9 10 10 9 9 9 10 9 9 9 9 10 9 8 7 6 6 6 7 6 6 5 6 6 6 7 7 7 8 8
17 15 12 11 11 12 11 11 10 11 10 10 10 11 11 10 9 9 10 9 9 9 10 10 10 9 8 7 7 8 8 7 7 7 7 7 7 7 7 7 8 8
17 14 12 11 11 11 11 11 10 11 12 11 11 11 11 11 10 10 10 10 10 9 10 10 10 9 9 8 8 8 8 9 8 8 9 9 8 8 7 8 8 8
15 13 12 11 10 10 10 11 11 12 12 11 10 11 11 11 11 10 10 10 10 10 9 9 9 9 9 8 8 8 8 9 9 9 9 9 9 8 8 7 7 7
12 12 10 9 10 10 10 11 12 12 13 11 10 10 11 11 11 11 11 10 10 10 10 9 9 9 8 8 8 8 7 7 7 7 7 7 7 7 7 6 6 6
10 9 9 9 9 9 9 11 12 13 13 12 10 9 10 10 11 12 12 11 11 10 10 10 9 9 9 8 8 8 7 6 6 5 6 6 6 6 6 5 5 4
8 7 7 8 8 8 8 10 12 12 12 12 11 10 10 10 11 12 12 12 12 11 11 10 10 9 9 8 8 8 7 7 6 5 5 5 4 5 5 5 4 4
6 6 6 7 8 8 9 10 11 12 12 12 12 12 11 11 11 11 12 12 12 12 12 11 10 10 9 9 8 7 7 7 6 6 5 5 4 4 4 4 4 4
6 6 6 7 8 9 10 10 11 11 11 11 11 12 12 12 11 11 11 12 12 12 12 12 11 11 10 9 9 8 7 7 7 6 6 6 5 5 5 5 5 4
5 6 7 7 9 10 10 10 10 11 11 11 11 12 13 13 12 12 12 12 13 13 13 13 12 11 11 10 9 9 8 7 6 6 6 6 6 6 6 7 7 7
3 3 5 6 8 9 10 10 10 11 11 12 12 12 12 13 13 14 13 13 13 13 13 13 12 12 11 11 9 8 7 6 6 6 6 6 6 7 7 8 9 9
0 1 3 5 6 8 10 11 11 11 12 13 13 13 13 13 14 15 15 15 15 14 14 13 12 12 12 13 11 9 7 6 5 5 6 6 7 7 8 9 9 9
1 1 3 4 5 7 8 9 10 11 12 13 14 13 13 12 13 15 16 16 16 16 16 14 14 14 15 15 15 12 8 5 5 5 6 7 7 8 8 8 9 9
1 1 2 4 5 6 7 7 8 9 11 12 12 12 12 12 13 14 15 15 15 16 17 17 15 15 16 17 16 13 9 6 4 5 5 6 7 8 8 9 9 9
2 2 2 3 4 5 7 7 8 9 9 11 11 12 12 12 13 15 15 15 15 15 17 18 19 18 17 17 17 15 11 8 6 7 7 8 9 9 9 10 10 9
1 2 2 3 4 5 6 7 8 9 9 10 11 12 13 14 15 16 16 17 17 17 17 18 21 21 20 19 18 17 14 12 10 10 9 9 10 10 10 10 10 7
2 2 2 3 4 5 6 7 8 8 8 9 10 11 13 14 16 17 18 18 18 18 18 18 20 22 23 21 19 18 16 13 10 8 6 7 9 9 8 9 7 5
4 3 3 3 3 5 6 8 9 9 9 9 9 10 11 12 14 15 15 16 16 16 16 17 20 23 25 23 21 20 17 13 9 7 6 8 10 9 7 7 6 5
5 5 5 4 4 5 6 7 9 10 11 10 10 11 11 11 12 12 13 13 13 14 14 14 16 20 23 22 20 19 17 13 11 11 10 9 8 7 5 5 5 5
6 6 5 6 6 6 6 6 7 8 9 9 9 10 11 12 13 13 12 12 11 12 13 12 13 17 20 19 19 19 17 14 13 13 12 10 8 6 5 6 7 7
7 7 6 6 7 7 8 8 8 8 8 8 8 8 9 10 12 12 11 11 11 12 13 12 13 17 19 18 19 20 17 13 13 13 12 10 9 8 7 8 10 10
8 8 8 8 8 8 8 9 10 9 8 8 9 8 8 8 9 10 10 10 10 12 14 13 13 17 19 19 20 20 16 12 10 11 12 11 11 10 9 9 10 10
9 9 9 9 9 8 8 9 10 10 10 10 10 9 8 9 9 8 9 9 10 12 13 13 14 19 21 20 19 18 15 11 10 11 11 11 11 11 11 11 11 10
Wind_Direction
171 164 159 160 157 152 151 147 142 142 135 136 141 138 132 120 109 107 106 106 102 96 91 90 90 94 100 95 94 104 95 87 92 92 95 103 109 114 114 111 109 105
172 165 161 160 158 153 150 145 142 140 134 136 141 138 133 124 114 111 109 108 103 99 95 94 96 98 101 99 95 98 96 92 92 90 95 100 103 106 103 100 100 100
178 171 167 165 163 156 150 145 141 137 135 140 145 141 136 129 123 116 112 109 104 101 99 98 100 101 102 104 99 97 101 100 95 93 96 95 97 103 102 102 102 100
187 180 174 172 164 155 152 151 146 141 143 149 151 147 143 139 133 126 118 115 111 107 104 102 102 104 108 109 107 107 108 105 100 100 101 98 99 103 103 106 107 105
194 185 177 176 166 159 160 157 152 150 153 157 157 154 151 148 144 137 130 125 121 116 111 108 106 107 109 113 114 116 116 114 110 110 109 107 106 107 108 112 112 111
192 185 180 182 174 168 164 157 156 159 160 164 164 159 157 156 153 147 142 137 133 128 122 118 116 114 113 116 120 122 123 124 123 122 119 117 117 117 116 120 120 115
187 183 182 184 178 171 164 157 160 164 164 168 169 163 161 159 156 153 150 146 142 138 133 128 124 121 119 119 120 122 125 127 130 132 127 125 129 129 128 130 129 124
185 182 182 182 174 166 161 161 166 169 169 170 172 171 166 161 159 157 155 151 148 145 141 138 133 128 126 125 124 123 123 126 131 132 128 128 129 130 130 130 130 131
185 183 183 180 173 167 165 167 172 175 175 174 177 179 173 167 164 161 159 157 152 150 149 147 144 141 138 137 135 133 133 132 132 132 132 136 139 136 134 132 132 135
183 181 181 181 181 181 178 173 173 177 178 178 181 184 182 178 171 168 166 161 158 157 156 155 153 152 150 148 146 145 145 145 146 148 148 149 152 150 146 148 153 154
184 182 187 191 195 204 199 182 173 175 179 182 184 184 186 187 181 177 173 169 166 164 161 160 159 159 158 157 156 156 156 158 161 164 168 172 172 169 171 173 174 175
195 199 204 206 214 219 209 191 181 179 181 185 187 185 184 187 187 185 180 176 174 169 165 164 161 161 162 162 163 165 166 170 172 174 179 183 185 189 195 198 199 198
207 214 218 221 225 221 210 200 193 189 188 189 190 188 185 185 187 188 187 183 178 174 171 167 164 163 162 162 164 166 167 169 173 179 183 186 194 202 206 209 211 209
218 227 229 229 227 219 213 208 203 202 203 200 196 195 194 192 189 188 188 186 181 177 173 170 167 165 162 162 163 165 168 172 178 188 195 198 206 212 216 219 220 217
300 238 237 234 227 221 219 216 215 219 219 215 208 206 205 203 198 194 191 189 184 180 176 172 170 170 168 165 165 167 172 181 192 207 220 226 228 229 229 229 230 226
3 246 235 229 223 222 222 222 225 225 221 218 216 213 212 210 205 199 194 191 186 184 185 186 185 187 186 180 177 176 177 185 207 228 240 245 246 247 242 238 239 235
349 276 236 230 226 223 223 225 228 226 221 219 219 217 214 209 205 201 198 198 196 194 197 201 203 203 202 198 194 191 189 194 215 234 245 252 251 248 245 245 243 237
345 310 264 244 238 235 234 235 234 231 229 228 227 225 221 216 213 210 208 210 211 210 212 218 220 219 216 212 208 207 210 215 223 236 249 259 256 251 252 254 248 235
357 315 287 266 251 243 240 237 235 232 231 232 232 232 232 229 226 223 223 224 224 223 225 227 226 225 223 218 214 216 222 225 226 233 245 255 256 254 253 252 247 234
24 350 306 289 274 260 247 239 235 229 226 230 233 235 236 235 233 231 231 231 230 231 232 228 227 229 225 219 221 228 230 223 215 218 236 251 252 249 243 242 239 230
6 351 325 304 288 272 258 247 240 231 224 225 230 234 235 234 235 233 232 231 229 231 233 227 225 229 227 223 228 233 226 207 188 189 215 240 242 234 225 227 225 216
352 339 321 304 291 280 267 254 245 237 233 229 229 233 232 230 231 231 229 228 225 225 226 223 223 228 227 223 221 216 204 188 180 189 204 218 220 208 192 189 186 183
342 332 317 301 289 280 272 263 251 244 239 232 230 233 231 227 229 229 227 224 221 217 214 212 216 217 213 209 201 191 182 176 176 181 187 190 184 169 156 160 164 158
328 323 316 305 290 278 270 263 254 247 241 232 228 231 230 226 224 224 224 219 215 213 207 204 212 213 205 196 189 180 171 168 169 168 169 167 155 140 137 153 163 156
317 311 309 305 296 288 280 267 254 246 240 233 228 226 221 219 215 214 215 211 207 208 205 203 210 207 195 185 180 174 167 167 170 164 158 155 148 138 129 132 143 145
308 304 301 299 296 295 292 278 260 247 237 230 229 224 214 208 205 202 199 193 192 195 192 191 193 187 177 173 176 174 168 167 170 163 155 152 150 143 133 128 128 132
Height
819 821 822 824 825 826 827 828 829 830 830 831 832 833 835 836 837 837 837 838 838 839 839 840 840 841 841 842 842 842 843 843 843 844 844 844 844 845 845 846 846 846
819 821 822 824 825 826 827 827 828 829 830 831 832 833 834 836 837 837 837 838 839 839 840 841 841 842 842 843 843 844 844 844 845 845 845 846 846 846 847 847 847 847
818 820 821 823 824 825 826 827 828 829 830 832 833 833 834 835 837 837 838 838 839 840 840 841 842 842 843 843 844 845 845 846 846 847 847 847 847 848 848 848 849 849
817 819 821 822 824 825 827 828 828 829 831 832 833 834 834 836 837 837 838 839 840 840 841 842 842 843 844 844 845 846 846 847 847 848 848 848 849 849 850 850 851 851
816 818 820 822 823 824 826 827 828 829 831 832 833 834 835 836 837 838 838 839 840 841 842 842 843 844 845 845 846 847 847 848 849 849 850 850 851 851 851 852 852 853
816 819 820 821 822 823 825 826 828 829 831 832 833 834 835 836 837 838 838 839 840 842 842 843 844 844 845 846 847 848 848 849 849 850 850 851 852 852 853 853 854 854
816 818 819 820 821 823 824 826 828 829 830 831 832 834 834 836 837 838 839 839 840 842 843 843 844 845 846 847 847 848 849 849 850 850 851 851 852 853 853 854 855 855
815 817 819 820 821 822 824 826 828 829 830 831 832 833 834 835 836 837 838 839 840 841 842 843 844 845 846 847 848 848 849 849 850 850 851 851 852 853 854 855 855 856
815 816 818 820 820 822 823 825 827 828 829 830 832 833 834 835 836 836 838 839 839 841 842 843 844 845 846 846 847 848 849 849 850 851 851 852 852 853 854 855 856 856
815 816 817 819 820 821 823 824 826 827 828 829 831 832 833 834 835 836 837 838 838 840 841 842 843 844 845 846 847 848 848 849 850 851 851 852 852 853 854 854 855 856
814 815 817 818 819 821 822 823 825 826 827 828 829 831 832 833 834 835 836 837 837 839 840 841 842 843 845 846 847 847 848 849 850 850 851 852 852 853 853 854 855 856
813 815 816 817 818 820 821 823 824 825 826 827 828 829 831 832 833 834 835 836 837 837 839 840 841 842 843 845 846 847 848 848 849 850 851 851 852 853 853 854 854 855
812 814 815 816 817 818 820 821 822 824 825 826 827 828 829 830 832 833 834 835 835 836 837 838 839 841 842 843 845 846 847 848 848 849 850 851 851 852 852 853 853 854
812 813 814 816 817 818 819 820 821 823 824 825 826 827 828 829 830 831 832 833 834 835 836 837 838 839 840 842 843 844 846 846 847 848 849 850 850 850 851 851 852 853
813 814 814 816 816 817 819 819 821 822 823 824 825 825 827 827 828 829 830 831 832 833 834 835 837 838 838 839 841 842 844 845 846 847 847 848 848 849 849 849 850 851
813 814 815 815 816 817 818 818 819 820 821 822 823 824 825 826 827 828 828 829 830 831 832 833 834 835 836 836 838 839 841 842 844 845 846 846 847 847 847 847 848 849
814 814 815 815 816 817 817 818 819 819 820 821 821 822 823 824 825 826 827 828 829 829 830 830 832 833 834 835 835 836 838 840 841 843 843 844 845 845 845 845 845 846
814 814 815 815 816 816 817 817 818 818 819 820 820 821 822 823 823 824 825 827 827 828 828 828 829 831 832 834 834 834 835 837 838 840 841 842 843 843 843 843 844 844
814 814 814 815 815 815 815 816 816 817 817 818 819 820 820 821 821 822 823 824 825 826 826 827 827 828 830 832 832 832 833 834 836 837 838 839 840 841 841 842 842 842
814 813 814 814 814 814 815 815 815 815 816 816 817 818 818 819 819 820 820 821 822 823 824 825 825 826 828 830 830 830 830 832 834 834 835 837 839 840 840 840 840 840
813 813 813 813 813 814 814 814 814 814 814 815 815 816 816 817 817 817 818 819 820 821 821 822 823 823 825 827 828 829 829 830 831 831 834 837 839 838 838 838 838 839
814 813 813 813 813 813 813 813 813 812 813 813 813 814 814 814 815 815 816 816 817 818 819 820 821 821 822 824 825 826 827 828 829 830 832 837 838 837 837 837 837 838
814 813 813 813 813 812 812 812 811 811 811 811 811 811 811 812 813 813 814 814 815 816 817 818 819 819 820 821 823 824 825 826 828 829 832 835 836 836 836 836 836 837
814 813 813 812 812 812 811 811 811 810 810 810 810 809 810 810 811 811 812 813 813 814 815 816 817 817 818 820 822 823 825 825 827 829 831 833 834 834 835 835 835 836
814 813 813 812 812 811 811 810 810 809 809 809 809 808 808 809 809 810 811 811 811 812 813 814 814 815 817 819 821 822 824 824 826 827 829 831 832 833 835 835 835 836
814 813 813 812 811 811 810 809 809 808 808 808 808 807 806 807 808 809 809 810 811 811 812 813 813 814 815 818 820 821 823 824 825 826 828 829 831 833 834 835 836 837